Voltar ao catálogo

SL-14 DEB

AtivoPO
NORAD 47088·DEBRIS·🇷🇺 Russia

Lançado Aug 15, 1991 de Plesetsk Cosmodrome

Loading…

Próximas Passagens (próximas 24 horas)

TLE

ObsoletoSource: Space-Track

Época: Aug 23, 2026, 03:39 UTC

1 47088U 91056DN  26235.15213180  .00008352  00000-0  13822-1 0  9992
2 47088  82.6171 123.7851 0107146 129.1489 231.9231 13.44418668116660

Acompanhe SL-14 DEB em tempo real com AllMySat

Download on the App Store